Le Raizet Airport, Guadeloupe

7:26 PM AST on June 20, 2018 (GMT -0400)
Le Raizet

Weather History for TFFR - October, 2017

Change the Weather History Date:

Saturday, October 28, 2017

  Actual Average Record
Temperature  
Mean Temperature 80 °F -  
Max Temperature 86 °F 84 °F 89 °F (1999)
Min Temperature 75 °F 71 °F 71 °F (2002)
Cooling Degree Days 16    
Growing Degree Days 30 (Base 50)    
Moisture  
Dew Point 74 °F    
Average Humidity 84    
Maximum Humidity 94    
Minimum Humidity 62    
Precipitation  
Precipitation 1.46 in 0.29 in - ()
Sea Level Pressure  
Sea Level Pressure 29.90 in    
Wind  
Wind Speed 5 mph ()    
Max Wind Speed 13 mph    
Max Gust Speed -    
Visibility 6.3 miles    
Events Fog , Rain    
Averages and records for this station are not official NWS values.
T = Trace of Precipitation, MM = Missing Value Source: Averaged Metar Reports

Daily Weather History Graph

Daily Weather History Graph

Search for Another Location

Airport or City:

Astronomy

Oct. 28, 2017 Rise Set
Actual Time 6:02 AM AST 5:37 PM AST
Civil Twilight 5:39 AM AST 5:59 PM AST
Nautical Twilight 5:14 AM AST 6:24 PM AST
Astronomical Twilight 4:49 AM AST 6:50 PM AST
Moon 1:03 PM AST (10/28) No Moon Set
Length of Visible Light 12h 19m
Length of Day
11h 35m
First Quarter, 57% of the Moon is Illuminated
Oct 28
First Quarter
Nov 4
Full
Nov 10
Last Quarter
Nov 18
New
Nov 26
First Quarter

Hourly Weather History & Observations

Time (AST) Temp. Heat Index Dew Point Humidity Pressure Visibility Wind Dir Wind Speed Gust Speed Precip Events Conditions
12:00 AM 77.0 °F - 73.4 °F 89% 29.92 in 6.2 mi SSE 3.5 mph - N/A   Unknown
12:30 AM 77.0 °F - 75.2 °F 94% 29.89 in 6.2 mi Variable 3.5 mph - N/A   Overcast
1:00 AM 77.0 °F - 73.4 °F 89% 29.89 in 6.2 mi Variable 1.2 mph - N/A   Overcast
1:30 AM 77.0 °F - 73.4 °F 89% 29.89 in 6.2 mi Variable 2.3 mph - N/A   Mostly Cloudy
2:00 AM 76 °F - 74 °F 90% 29.89 in 7 mi ESE 3.5 mph - -   Clear
2:00 AM 77.0 °F - 73.4 °F 89% 29.89 in - ESE 3.5 mph - N/A   Clear
2:30 AM 75.2 °F - 73.4 °F 94% 29.86 in - ESE 2.3 mph - N/A   Clear
3:00 AM 77.0 °F - 73.4 °F 89% 29.86 in 6.2 mi ESE 4.6 mph - N/A   Unknown
3:30 AM 77.0 °F - 73.4 °F 89% 29.86 in 6.2 mi Variable 2.3 mph - N/A   Unknown
4:00 AM 77.0 °F - 73.4 °F 89% 29.86 in 6.2 mi SSE 5.8 mph - N/A   Mostly Cloudy
4:30 AM 77.0 °F - 75.2 °F 94% 29.89 in 3.7 mi South 5.8 mph - N/A Rain Heavy Rain
5:00 AM 77.0 °F - 75.2 °F 94% 29.89 in 1.2 mi SE 10.4 mph - N/A Fog , Rain Rain
5:30 AM 75.2 °F - 73.4 °F 94% 29.89 in 2.8 mi Variable 2.3 mph - N/A Rain Light Rain
6:00 AM 77.0 °F - 75.2 °F 94% 29.89 in 6.2 mi Variable 4.6 mph - N/A Rain Light Rain
6:30 AM 75.2 °F - 73.4 °F 94% 29.89 in 6.2 mi West 2.3 mph - N/A   Mostly Cloudy
7:00 AM 77.0 °F - 75.2 °F 94% 29.92 in 6.2 mi NE 3.5 mph - N/A   Scattered Clouds
7:30 AM 75.2 °F - 73.4 °F 94% 29.92 in 1.4 mi ESE 10.4 mph - N/A Rain Heavy Rain
8:00 AM 75 °F - 73 °F 91% 29.95 in 11 mi NE 5.8 mph - - Rain Light Rain
8:00 AM 75.2 °F - 73.4 °F 94% 29.95 in 6.2 mi NE 5.8 mph - N/A Rain Light Rain
8:30 AM 75.2 °F - 73.4 °F 94% 29.95 in 4.3 mi East 11.5 mph - N/A Rain Light Rain
9:00 AM 77.0 °F - 73.4 °F 89% 29.95 in 6.2 mi East 6.9 mph - N/A   Mostly Cloudy
9:30 AM 78.8 °F - 75.2 °F 89% 29.95 in 6.2 mi ESE 6.9 mph - N/A   Mostly Cloudy
10:00 AM 84.2 °F 92.3 °F 75.2 °F 74% 29.95 in - ESE 11.5 mph - N/A   Mostly Cloudy
10:30 AM 84.2 °F 94.1 °F 77.0 °F 79% 29.95 in 6.2 mi SE 10.4 mph - N/A   Mostly Cloudy
11:00 AM 84 °F - 74 °F 65% 29.94 in 28 mi SE 10.4 mph - -   Clear
11:00 AM 84.2 °F 90.9 °F 73.4 °F 70% 29.92 in 6.2 mi SE 10.4 mph - N/A   Overcast
11:30 AM 84.2 °F 92.3 °F 75.2 °F 74% 29.92 in 6.2 mi SE 11.5 mph - N/A   Mostly Cloudy
12:00 PM 86.0 °F 93.4 °F 73.4 °F 66% 29.89 in 6.2 mi SSE 12.7 mph - N/A   Mostly Cloudy
12:30 PM 86.0 °F 93.4 °F 73.4 °F 66% 29.89 in 6.2 mi SE 10.4 mph - N/A   Scattered Clouds
1:00 PM 86.0 °F 93.4 °F 73.4 °F 66% 29.89 in 6.2 mi SE 11.5 mph - N/A   Scattered Clouds
1:30 PM 86.0 °F 91.8 °F 71.6 °F 62% 29.86 in 6.2 mi SE 10.4 mph - N/A   Partly Cloudy
2:00 PM 84 °F - 73 °F 62% 29.87 in 22 mi SE 10.4 mph - -   Clear
2:00 PM 84.2 °F 90.9 °F 73.4 °F 70% 29.86 in 6.2 mi SE 10.4 mph - N/A   Mostly Cloudy
2:30 PM 84.2 °F 92.3 °F 75.2 °F 74% 29.86 in 6.2 mi ESE 11.5 mph - N/A   Mostly Cloudy
3:00 PM 84.2 °F 92.3 °F 75.2 °F 74% 29.86 in 6.2 mi ESE 10.4 mph - N/A   Mostly Cloudy
3:30 PM 82.4 °F 89.5 °F 75.2 °F 79% 29.86 in 6.2 mi East 12.7 mph - N/A Rain Light Rain
4:00 PM 80.6 °F 86.2 °F 75.2 °F 84% 29.86 in 6.2 mi SSE 8.1 mph - N/A Rain Light Rain
4:30 PM 80.6 °F 86.2 °F 75.2 °F 84% 29.86 in 6.2 mi SE 4.6 mph - N/A   Overcast
5:00 PM 81 °F - 76 °F 80% 29.86 in 14 mi SE 6.9 mph - -   Clear
5:00 PM 80.6 °F 86.2 °F 75.2 °F 84% 29.86 in 6.2 mi SE 6.9 mph - N/A   Mostly Cloudy
5:30 PM 80.6 °F 86.2 °F 75.2 °F 84% 29.86 in 6.2 mi ESE 5.8 mph - N/A   Partly Cloudy
6:00 PM 80.6 °F 86.2 °F 75.2 °F 84% 29.86 in - East 6.9 mph - N/A   Clear
6:30 PM 78.8 °F - 75.2 °F 89% 29.86 in 6.2 mi East 6.9 mph - N/A   Partly Cloudy
7:00 PM 78.8 °F - 75.2 °F 89% 29.86 in 6.2 mi East 5.8 mph - N/A   Partly Cloudy
7:30 PM 78.8 °F - 75.2 °F 89% 29.89 in 6.2 mi ESE 4.6 mph - N/A   Mostly Cloudy
8:00 PM 79 °F - 74 °F 82% 29.91 in 16 mi East 5.8 mph - -   Clear
8:00 PM 78.8 °F - 75.2 °F 89% 29.89 in 6.2 mi East 5.8 mph - N/A   Partly Cloudy
8:30 PM 78.8 °F - 75.2 °F 89% 29.89 in 6.2 mi ENE 4.6 mph - N/A   Scattered Clouds
9:00 PM 78.8 °F - 73.4 °F 83% 29.92 in 6.2 mi East 4.6 mph - N/A   Partly Cloudy
9:30 PM 78.8 °F - 73.4 °F 83% 29.92 in 6.2 mi East 8.1 mph - N/A   Unknown
10:00 PM 78.8 °F - 73.4 °F 83% 29.92 in 6.2 mi East 8.1 mph - N/A   Unknown
10:30 PM 78.8 °F - 73.4 °F 83% 29.92 in - SE 5.8 mph - N/A   Clear
11:00 PM 78.8 °F - 73.4 °F 83% 29.92 in - ESE 4.6 mph - N/A   Clear
11:30 PM 78.8 °F - 73.4 °F 83% 29.92 in 6.2 mi ESE 4.6 mph - N/A   Unknown